Location: St Paul
(33.9360°N, 83.4200°W)
Time: 08:16:23
(UTC-05:00)

Cosmos 1656 - Pass Details

Date: 06 October 2017
Orbit: 799 x 848 km, 71.1° (Epoch: 12 December)

Event Time Altitude Azimuth Distance (km) Brightness Sun altitude
Rises 19:28:54 0° 345° (NNW) 3,394 7.0 -4.6°
Reaches altitude 10° 19:31:28 10° 352° (N) 2,450 6.2 -5.1°
Maximum altitude 19:36:52 47° 65° (ENE) 1,083 3.9 -6.2°
Drops below altitude 10° 19:42:10 10° 139° (SE) 2,405 5.7 -7.3°
Sets 19:44:39 0° 145° (SE) 3,326 6.5 -7.8°
